| time (UTC) | temp F | wind direction | speed MPH | gust MPH | rain 1hr in | rain 24hr in | rain mn in | humidity % | barometer mb |
| 20260504213509 | 72 | 231 | 11.0 | 18.0 | 0.00 | 0.00 | 0.00 | 44 | 1006.0 |
| 20260504213007 | 72 | 209 | 7.0 | 12.0 | 0.00 | 0.00 | 0.00 | 45 | 1006.3 |
| 20260504212502 | 72 | 273 | 8.0 | 12.0 | 0.00 | 0.00 | 0.00 | 45 | 1006.3 |
| 20260504212000 | 71 | 264 | 3.0 | 4.0 | 0.00 | 0.00 | 0.00 | 47 | 1006.2 |
| 20260504211456 | 70 | 274 | 5.0 | 15.0 | 0.00 | 0.00 | 0.00 | 45 | 1006.4 |
| 20260504210954 | 70 | 226 | 9.0 | 18.0 | 0.00 | 0.00 | 0.00 | 45 | 1006.2 |
| 20260504210450 | 70 | 227 | 11.0 | 12.0 | 0.00 | 0.00 | 0.00 | 44 | 1006.4 |
| 20260504205947 | 71 | 190 | 9.0 | 15.0 | 0.00 | 0.00 | 0.00 | 44 | 1006.3 |
| 20260504205445 | 71 | 241 | 9.0 | 15.0 | 0.00 | 0.00 | 0.00 | 45 | 1006.5 |
| 20260504204943 | 72 | 264 | 4.0 | 15.0 | 0.00 | 0.00 | 0.00 | 44 | 1006.2 |
| 20260504204441 | 71 | 210 | 6.0 | 10.0 | 0.00 | 0.00 | 0.00 | 44 | 1006.3 |
| 20260504203940 | 71 | 210 | 11.0 | 14.0 | 0.00 | 0.00 | 0.00 | 43 | 1006.4 |
| 20260504203437 | 72 | 236 | 9.0 | 12.0 | 0.00 | 0.00 | 0.00 | 42 | 1006.6 |
| 20260504202933 | 72 | 264 | 5.0 | 7.0 | 0.00 | 0.00 | 0.00 | 45 | 1006.4 |
| 20260504202430 | 73 | 206 | 5.0 | 12.0 | 0.00 | 0.00 | 0.00 | 43 | 1006.4 |
| 20260504201926 | 72 | 147 | 5.0 | 11.0 | 0.00 | 0.00 | 0.00 | 42 | 1006.5 |
| 20260504201424 | 72 | 171 | 7.0 | 11.0 | 0.00 | 0.00 | 0.00 | 41 | 1006.6 |
| 20260504200921 | 72 | 226 | 5.0 | 14.0 | 0.00 | 0.00 | 0.00 | 43 | 1006.4 |
| 20260504200418 | 72 | 213 | 9.0 | 15.0 | 0.00 | 0.00 | 0.00 | 42 | 1006.6 |
| 20260504195915 | 72 | 215 | 6.0 | 8.0 | 0.00 | 0.00 | 0.00 | 42 | 1006.7 |
| 20260504195410 | 72 | 219 | 6.0 | 10.0 | 0.00 | 0.00 | 0.00 | 45 | 1006.9 |
| 20260504194907 | 72 | 213 | 6.0 | 11.0 | 0.00 | 0.00 | 0.00 | 42 | 1006.7 |
| 20260504194403 | 72 | 194 | 8.0 | 14.0 | 0.00 | 0.00 | 0.00 | 42 | 1006.9 |
| 20260504193859 | 72 | 214 | 7.0 | 14.0 | 0.00 | 0.00 | 0.00 | 45 | 1006.9 |
| 20260504193356 | 71 | 201 | 9.0 | 12.0 | 0.00 | 0.00 | 0.00 | 43 | 1007.1 |
| 20260504192855 | 71 | 224 | 9.0 | 12.0 | 0.00 | 0.00 | 0.00 | 43 | 1007.4 |
| 20260504192352 | 71 | 220 | 7.0 | 12.0 | 0.00 | 0.00 | 0.00 | 45 | 1007.1 |
| 20260504191850 | 71 | 212 | 8.0 | 15.0 | 0.00 | 0.00 | 0.00 | 45 | 1007.4 |
| 20260504191348 | 71 | 260 | 10.0 | 14.0 | 0.00 | 0.00 | 0.00 | 41 | 1007.4 |
| 20260504190843 | 70 | 177 | 8.0 | 12.0 | 0.00 | 0.00 | 0.00 | 44 | 1007.6 |
| 20260504190339 | 71 | 187 | 10.0 | 15.0 | 0.00 | 0.00 | 0.00 | 45 | 1007.6 |
| 20260504185836 | 71 | 233 | 3.0 | 7.0 | 0.00 | 0.00 | 0.00 | 45 | 1007.5 |
| 20260504185333 | 71 | 198 | 5.0 | 8.0 | 0.00 | 0.00 | 0.00 | 43 | 1007.6 |
| 20260504184829 | 71 | 261 | 5.0 | 18.0 | 0.00 | 0.00 | 0.00 | 43 | 1007.7 |
| 20260504184326 | 70 | 154 | 5.0 | 10.0 | 0.00 | 0.00 | 0.00 | 45 | 1007.9 |
| 20260504183821 | 70 | 223 | 6.0 | 12.0 | 0.00 | 0.00 | 0.00 | 44 | 1007.7 |
| 20260504183319 | 69 | 207 | 10.0 | 16.0 | 0.00 | 0.00 | 0.00 | 44 | 1007.8 |
| 20260504182817 | 69 | 116 | 11.0 | 12.0 | 0.00 | 0.00 | 0.00 | 43 | 1007.7 |
| 20260504182314 | 69 | 214 | 9.0 | 15.0 | 0.00 | 0.00 | 0.00 | 43 | 1007.9 |
| 20260504181811 | 69 | 277 | 4.0 | 14.0 | 0.00 | 0.00 | 0.00 | 44 | 1008.0 |
| 20260504181308 | 69 | 247 | 8.0 | 16.0 | 0.00 | 0.00 | 0.00 | 42 | 1008.2 |
| 20260504180807 | 70 | 232 | 10.0 | 16.0 | 0.00 | 0.00 | 0.00 | 43 | 1008.0 |
| 20260504180305 | 69 | 182 | 5.0 | 15.0 | 0.00 | 0.00 | 0.00 | 42 | 1008.2 |
| 20260504175803 | 69 | 55 | 5.0 | 12.0 | 0.00 | 0.00 | 0.00 | 43 | 1008.1 |
| 20260504175259 | 69 | 231 | 7.0 | 12.0 | 0.00 | 0.00 | 0.00 | 42 | 1008.1 |
| 20260504174757 | 69 | 310 | 8.0 | 16.0 | 0.00 | 0.00 | 0.00 | 41 | 1008.2 |
| 20260504174255 | 68 | 247 | 9.0 | 12.0 | 0.00 | 0.00 | 0.00 | 47 | 1008.3 |
| 20260504173751 | 68 | 124 | 6.0 | 15.0 | 0.00 | 0.00 | 0.00 | 42 | 1008.2 |
| 20260504173248 | 69 | 165 | 5.0 | 8.0 | 0.00 | 0.00 | 0.00 | 42 | 1008.3 |
| 20260504172745 | 68 | 152 | 5.0 | 11.0 | 0.00 | 0.00 | 0.00 | 44 | 1008.3 |
| 20260504172242 | 68 | 168 | 7.0 | 15.0 | 0.00 | 0.00 | 0.00 | 42 | 1008.6 |
| 20260504171738 | 68 | 205 | 5.0 | 12.0 | 0.00 | 0.00 | 0.00 | 43 | 1008.3 |
| 20260504171235 | 68 | 286 | 5.0 | 10.0 | 0.00 | 0.00 | 0.00 | 46 | 1008.5 |
| 20260504170732 | 68 | 126 | 2.0 | 11.0 | 0.00 | 0.00 | 0.00 | 45 | 1008.6 |
| 20260504170229 | 68 | 166 | 8.0 | 15.0 | 0.00 | 0.00 | 0.00 | 43 | 1008.5 |
| 20260504160147 | 65 | 217 | 5.0 | 15.0 | 0.00 | 0.00 | 0.00 | 45 | 1009.3 |
| 20260504151115 | 63 | 265 | 8.0 | 12.0 | 0.00 | 0.00 | 0.00 | 47 | 1009.9 |
| 20260504150613 | 62 | 214 | 7.0 | 15.0 | 0.00 | 0.00 | 0.00 | 50 | 1009.7 |
| 20260504150109 | 62 | 242 | 8.0 | 15.0 | 0.00 | 0.00 | 0.00 | 49 | 1009.8 |
| 20260504141038 | 60 | 216 | 4.0 | 8.0 | 0.00 | 0.00 | 0.00 | 48 | 1009.7 |
| 20260504140534 | 60 | 63 | 1.0 | 11.0 | 0.00 | 0.00 | 0.00 | 50 | 1009.9 |
| 20260504130459 | 57 | 237 | 3.0 | 8.0 | 0.00 | 0.00 | 0.00 | 50 | 1010.3 |
| 20260504110345 | 51 | 208 | 4.0 | 5.0 | 0.00 | 0.00 | 0.00 | 56 | 1010.3 |
| 20260504100303 | 49 | 229 | 3.0 | 4.0 | 0.00 | 0.00 | 0.00 | 58 | 1010.1 |
| 20260504081656 | 51 | 221 | 3.0 | 7.0 | 0.00 | 0.00 | 0.00 | 54 | 1010.8 |
| 20260504081152 | 51 | 170 | 3.0 | 7.0 | 0.00 | 0.00 | 0.00 | 53 | 1010.8 |
| 20260504080649 | 51 | 142 | 3.0 | 10.0 | 0.00 | 0.00 | 0.00 | 53 | 1010.8 |
| 20260504080145 | 51 | 218 | 4.0 | 8.0 | 0.00 | 0.00 | 0.00 | 54 | 1010.9 |
| 20260504070113 | 51 | 258 | 8.0 | 12.0 | 0.00 | 0.00 | 0.00 | 53 | 1011.8 |
| 20260504050502 | 50 | 195 | 3.0 | 4.0 | 0.00 | 0.00 | 0.00 | 58 | 1013.1 |
| 20260504045959 | 50 | 228 | 2.0 | 5.0 | 0.00 | 0.00 | 0.00 | 58 | 1013.1 |
| 20260504045455 | 50 | 180 | 2.0 | 3.0 | 0.00 | 0.00 | 0.00 | 58 | 1013.1 |
| 20260504044951 | 50 | 212 | 1.0 | 1.0 | 0.00 | 0.00 | 0.00 | 58 | 1013.0 |
| 20260504044448 | 50 | 144 | 3.0 | 4.0 | 0.00 | 0.00 | 0.00 | 58 | 1013.1 |
| 20260504043946 | 50 | 215 | 1.0 | 7.0 | 0.00 | 0.00 | 0.00 | 57 | 1013.1 |
| 20260504043442 | 50 | 189 | 3.0 | 4.0 | 0.00 | 0.00 | 0.00 | 57 | 1013.2 |
| 20260504042940 | 50 | 167 | 2.0 | 4.0 | 0.00 | 0.00 | 0.00 | 57 | 1013.3 |
| 20260504042436 | 50 | 216 | 5.0 | 5.0 | 0.00 | 0.00 | 0.00 | 56 | 1013.4 |
| 20260504041933 | 50 | 196 | 1.0 | 3.0 | 0.00 | 0.00 | 0.00 | 57 | 1013.3 |
| 20260504041429 | 50 | 191 | 1.0 | 3.0 | 0.00 | 0.00 | 0.00 | 56 | 1013.2 |
| 20260504040925 | 50 | 214 | 2.0 | 4.0 | 0.00 | 0.00 | 0.00 | 56 | 1013.4 |
| 20260504040424 | 51 | 200 | 1.0 | 1.0 | 0.00 | 0.00 | 0.00 | 56 | 1013.4 |
| 20260504035919 | 51 | 203 | 2.0 | 3.0 | 0.00 | 0.00 | 0.00 | 55 | 1013.4 |
| 20260504035417 | 51 | 222 | 3.0 | 3.0 | 0.00 | 0.00 | 0.00 | 55 | 1013.5 |
| 20260504034914 | 51 | 195 | 2.0 | 1.0 | 0.00 | 0.00 | 0.00 | 55 | 1013.4 |
| 20260504034412 | 51 | 213 | 1.0 | 1.0 | 0.00 | 0.00 | 0.00 | 56 | 1013.4 |
| 20260504033908 | 51 | 214 | 2.0 | 1.0 | 0.00 | 0.00 | 0.00 | 54 | 1013.5 |
| 20260504033406 | 51 | 226 | 2.0 | 4.0 | 0.00 | 0.00 | 0.00 | 54 | 1013.7 |
| 20260504032902 | 51 | 204 | 3.0 | 4.0 | 0.00 | 0.00 | 0.00 | 54 | 1013.7 |
| 20260504032359 | 51 | 178 | 1.0 | 1.0 | 0.00 | 0.00 | 0.00 | 54 | 1013.8 |
| 20260504031855 | 51 | 212 | 3.0 | 5.0 | 0.00 | 0.00 | 0.00 | 53 | 1013.7 |
| 20260504031353 | 51 | 221 | 3.0 | 4.0 | 0.00 | 0.00 | 0.00 | 54 | 1013.8 |
| 20260504030849 | 51 | 221 | 3.0 | 5.0 | 0.00 | 0.00 | 0.00 | 52 | 1013.9 |
| 20260504030347 | 51 | 289 | 0.0 | 0.0 | 0.00 | 0.00 | 0.00 | 53 | 1014.2 |
| 20260504025842 | 51 | 297 | 1.0 | 7.0 | 0.00 | 0.00 | 0.00 | 52 | 1014.1 |
| 20260504025340 | 51 | 213 | 2.0 | 4.0 | 0.00 | 0.00 | 0.00 | 52 | 1014.0 |
| 20260504024836 | 51 | 245 | 2.0 | 7.0 | 0.00 | 0.00 | 0.00 | 52 | 1014.0 |
| 20260504024333 | 50 | 310 | 3.0 | 7.0 | 0.00 | 0.00 | 0.00 | 51 | 1014.3 |
| 20260504023829 | 50 | 241 | 4.0 | 7.0 | 0.00 | 0.00 | 0.00 | 51 | 1014.1 |
| 20260504023327 | 50 | 179 | 2.0 | 4.0 | 0.00 | 0.00 | 0.00 | 51 | 1014.3 |
| 20260504022822 | 50 | 226 | 4.0 | 5.0 | 0.00 | 0.00 | 0.00 | 51 | 1014.1 |
| 20260504022319 | 49 | 223 | 3.0 | 4.0 | 0.00 | 0.00 | 0.00 | 52 | 1014.1 |
| 20260504021816 | 49 | 211 | 2.0 | 3.0 | 0.00 | 0.00 | 0.00 | 52 | 1013.8 |
| 20260504021314 | 49 | 189 | 1.0 | 1.0 | 0.00 | 0.00 | 0.00 | 51 | 1013.8 |
| 20260504020810 | 49 | 189 | 1.0 | 1.0 | 0.00 | 0.00 | 0.00 | 51 | 1013.7 |
| 20260504020307 | 50 | 188 | 1.0 | 1.0 | 0.00 | 0.00 | 0.00 | 51 | 1013.8 |
| 20260504015802 | 50 | 189 | 1.0 | 1.0 | 0.00 | 0.00 | 0.00 | 51 | 1013.7 |
| 20260504015259 | 50 | 189 | 1.0 | 1.0 | 0.00 | 0.00 | 0.00 | 49 | 1013.7 |
| 20260504014755 | 50 | 190 | 1.0 | 1.0 | 0.00 | 0.00 | 0.00 | 49 | 1013.5 |
| 20260504014251 | 51 | 187 | 0.0 | 1.0 | 0.00 | 0.00 | 0.00 | 48 | 1013.5 |
| 20260504013749 | 51 | 183 | 1.0 | 1.0 | 0.00 | 0.00 | 0.00 | 48 | 1013.4 |
| 20260504013247 | 51 | 183 | 2.0 | 1.0 | 0.00 | 0.00 | 0.00 | 48 | 1013.3 |
| 20260504012743 | 51 | 186 | 0.0 | 1.0 | 0.00 | 0.00 | 0.00 | 47 | 1013.3 |
| 20260504012241 | 52 | 198 | 1.0 | 1.0 | 0.00 | 0.00 | 0.00 | 46 | 1013.4 |
| 20260504011737 | 53 | 197 | 1.0 | 1.0 | 0.00 | 0.00 | 0.00 | 44 | 1013.5 |
| 20260504011235 | 52 | 253 | 1.0 | 3.0 | 0.00 | 0.00 | 0.00 | 45 | 1013.2 |
| 20260504010731 | 53 | 215 | 2.0 | 3.0 | 0.00 | 0.00 | 0.00 | 44 | 1013.4 |
| 20260504010226 | 53 | 161 | 1.0 | 1.0 | 0.00 | 0.00 | 0.00 | 43 | 1013.4 |
| 20260504005723 | 54 | 208 | 3.0 | 3.0 | 0.00 | 0.00 | 0.00 | 41 | 1013.4 |
| 20260504005220 | 54 | 213 | 3.0 | 5.0 | 0.00 | 0.00 | 0.00 | 41 | 1013.5 |
| 20260504004718 | 54 | 212 | 2.0 | 4.0 | 0.00 | 0.00 | 0.00 | 41 | 1013.4 |
| 20260504004215 | 54 | 210 | 2.0 | 3.0 | 0.00 | 0.00 | 0.00 | 40 | 1013.4 |
| 20260504003712 | 55 | 172 | 0.0 | 3.0 | 0.00 | 0.00 | 0.00 | 41 | 1013.3 |
| 20260504003208 | 55 | 223 | 4.0 | 5.0 | 0.00 | 0.00 | 0.00 | 39 | 1013.4 |
| 20260504002705 | 55 | 220 | 3.0 | 3.0 | 0.00 | 0.00 | 0.00 | 40 | 1013.4 |
| 20260504002202 | 55 | 244 | 1.0 | 4.0 | 0.00 | 0.00 | 0.00 | 40 | 1013.4 |
| 20260504001700 | 56 | 228 | 3.0 | 5.0 | 0.00 | 0.00 | 0.00 | 39 | 1013.4 |
| 20260504001156 | 56 | 255 | 3.0 | 5.0 | 0.00 | 0.00 | 0.00 | 38 | 1013.5 |
| 20260504000653 | 56 | 239 | 2.0 | 4.0 | 0.00 | 0.00 | 0.00 | 39 | 1013.3 |
| 20260504000150 | 57 | 224 | 4.0 | 11.0 | 0.00 | 0.00 | 0.00 | 37 | 1013.5 |
| 20260503235649 | 57 | 240 | 6.0 | 11.0 | 0.00 | 0.00 | 0.00 | 37 | 1013.4 |
| 20260503235145 | 57 | 190 | 9.0 | 11.0 | 0.00 | 0.00 | 0.00 | 37 | 1013.5 |
| 20260503234643 | 57 | 267 | 3.0 | 14.0 | 0.00 | 0.00 | 0.00 | 38 | 1013.4 |
| 20260503234141 | 57 | 187 | 3.0 | 8.0 | 0.00 | 0.00 | 0.00 | 37 | 1013.4 |
| 20260503233638 | 57 | 246 | 6.0 | 14.0 | 0.00 | 0.00 | 0.00 | 36 | 1013.7 |
| 20260503233133 | 57 | 221 | 3.0 | 4.0 | 0.00 | 0.00 | 0.00 | 37 | 1013.8 |
| 20260503232630 | 57 | 202 | 5.0 | 8.0 | 0.00 | 0.00 | 0.00 | 36 | 1013.7 |
| 20260503232128 | 57 | 332 | 3.0 | 10.0 | 0.00 | 0.00 | 0.00 | 36 | 1013.4 |
| 20260503231626 | 57 | 239 | 5.0 | 12.0 | 0.00 | 0.00 | 0.00 | 37 | 1013.5 |
| 20260503231122 | 57 | 236 | 3.0 | 4.0 | 0.00 | 0.00 | 0.00 | 36 | 1013.5 |
| 20260503230619 | 57 | 278 | 8.0 | 10.0 | 0.00 | 0.00 | 0.00 | 35 | 1013.5 |
| 20260503230116 | 57 | 219 | 4.0 | 7.0 | 0.00 | 0.00 | 0.00 | 37 | 1013.5 |
| 20260503225614 | 57 | 187 | 5.0 | 8.0 | 0.00 | 0.00 | 0.00 | 37 | 1013.5 |
| 20260503225113 | 57 | 224 | 5.0 | 16.0 | 0.00 | 0.00 | 0.00 | 36 | 1013.7 |
| 20260503224611 | 57 | 248 | 4.0 | 5.0 | 0.00 | 0.00 | 0.00 | 36 | 1013.8 |
| 20260503224109 | 58 | 272 | 3.0 | 4.0 | 0.00 | 0.00 | 0.00 | 37 | 1013.7 |
| 20260503223606 | 58 | 246 | 3.0 | 12.0 | 0.00 | 0.00 | 0.00 | 36 | 1013.9 |
| 20260503223102 | 58 | 257 | 4.0 | 10.0 | 0.00 | 0.00 | 0.00 | 35 | 1013.8 |
| 20260503222600 | 58 | 304 | 6.0 | 10.0 | 0.00 | 0.00 | 0.00 | 34 | 1013.8 |
| 20260503222058 | 58 | 234 | 6.0 | 11.0 | 0.00 | 0.00 | 0.00 | 34 | 1013.7 |
| 20260503221555 | 58 | 251 | 3.0 | 5.0 | 0.00 | 0.00 | 0.00 | 36 | 1013.8 |
| 20260503221053 | 58 | 177 | 3.0 | 15.0 | 0.00 | 0.00 | 0.00 | 34 | 1013.9 |
| 20260503220549 | 58 | 252 | 5.0 | 10.0 | 0.00 | 0.00 | 0.00 | 36 | 1014.0 |
| 20260503220046 | 58 | 239 | 6.0 | 11.0 | 0.00 | 0.00 | 0.00 | 36 | 1013.9 |
| 20260503215543 | 58 | 224 | 12.0 | 18.0 | 0.00 | 0.00 | 0.00 | 34 | 1013.8 |
| 20260503215040 | 59 | 244 | 5.0 | 18.0 | 0.00 | 0.00 | 0.00 | 35 | 1013.8 |
| 20260503214538 | 59 | 242 | 13.0 | 19.0 | 0.00 | 0.00 | 0.00 | 34 | 1014.0 |
| 20260503214034 | 59 | 291 | 5.0 | 11.0 | 0.00 | 0.00 | 0.00 | 34 | 1013.9 |